Theta_e
313 314 313 310 308 304 303 302 297 307 308 295 295 289 295 299 298 301 298 297 295 293 292 290 290 290 294 300 298 292 293 290 283 286 293 295 294 292 291 285 284 287 286 284
313 314 313 310 309 305 297 298 301 308 306 289 290 295 296 299 297 297 297 295 297 296 292 286 292 293 298 298 296 293 293 288 281 283 290 296 291 292 293 291 289 283 281 283
313 314 313 311 308 306 300 300 294 299 299 298 294 293 294 294 300 297 297 296 298 295 292 293 290 292 296 299 298 301 299 287 284 280 284 288 285 288 290 288 283 284 285 287
313 314 314 311 308 306 301 303 297 299 289 292 295 296 296 293 292 296 296 294 295 292 283 289 290 294 295 297 300 296 294 286 288 288 289 289 288 288 289 286 289 285 286 288
313 313 313 311 308 305 303 300 298 299 295 296 295 295 291 292 293 293 292 291 294 295 288 291 289 292 292 292 295 293 294 286 288 286 289 289 287 289 288 289 288 288 287 285
311 312 313 312 308 304 305 306 305 299 296 294 292 292 293 293 294 296 297 296 294 294 295 298 298 298 297 295 292 292 289 285 284 281 288 286 281 284 284 286 287 286 282 286
309 311 312 312 307 304 299 302 301 297 291 294 293 294 295 293 294 293 298 299 294 299 303 302 300 298 298 298 297 298 287 285 285 281 282 272 285 288 287 286 287 288 287 288
310 311 312 312 308 304 299 299 300 298 291 295 294 295 294 295 296 294 296 300 300 302 298 291 289 290 293 296 298 295 295 286 282 280 277 283 285 286 284 282 282 289 287 287
310 311 312 312 308 305 301 299 300 299 293 293 298 294 295 290 289 293 296 302 303 300 293 289 285 282 289 288 292 298 296 293 284 283 278 277 284 288 290 288 279 290 287 286
308 309 311 312 310 305 301 298 301 301 295 298 299 294 292 294 292 290 295 297 295 297 288 286 283 283 291 286 286 286 286 284 280 281 280 284 288 288 290 277 280 287 287 287
306 308 310 312 311 306 302 298 301 300 297 298 300 301 295 294 292 287 295 292 292 289 286 286 284 285 287 287 290 285 284 282 281 281 279 278 291 287 280 284 286 287 288 287
306 306 309 311 311 307 304 295 302 301 299 297 302 301 302 300 298 293 295 293 291 292 286 289 287 285 288 287 283 293 283 285 282 282 282 290 290 287 289 287 285 287 285 288
304 306 307 309 310 307 303 298 298 297 296 296 297 298 304 306 303 303 293 297 297 293 296 290 288 284 289 285 285 288 291 286 283 283 288 288 290 290 289 289 287 286 289 293
304 306 308 309 311 308 305 298 299 296 295 289 294 304 299 306 306 306 304 301 301 298 295 290 287 285 293 289 290 288 288 287 285 286 289 289 291 289 287 289 290 287 290 293
304 305 307 309 310 306 304 301 301 300 295 290 292 297 300 304 301 303 305 301 298 295 291 289 287 292 292 294 293 289 289 285 284 283 288 287 286 289 290 289 289 288 290 291
303 304 306 309 306 304 299 294 302 302 299 293 286 297 296 299 305 301 304 302 299 296 292 291 295 298 295 290 286 290 294 295 293 289 293 293 292 291 292 290 290 291 291 291
303 305 308 306 304 301 296 295 298 303 302 293 288 290 301 303 303 302 302 304 300 297 294 293 295 296 297 292 285 290 295 295 295 295 295 292 291 289 292 292 292 292 292 291
303 305 306 304 303 301 296 301 303 302 297 296 287 288 294 304 298 297 306 301 299 296 296 299 298 297 296 288 293 295 296 295 295 295 297 296 296 293 292 292 292 290 290 290
304 303 303 300 297 293 297 308 306 301 298 290 290 286 289 305 301 302 303 304 295 300 294 298 299 295 290 292 296 295 295 295 295 297 297 297 295 294 292 292 291 290 290 291
302 300 294 290 295 305 303 298 294 293 295 294 287 293 289 297 297 297 298 301 295 291 296 301 295 294 298 297 297 296 297 297 297 295 295 296 295 294 292 292 291 291 292 292
298 294 291 301 306 300 296 291 289 289 287 290 290 290 288 297 291 291 299 295 295 290 293 293 293 291 295 297 297 298 298 298 298 298 298 299 299 296 294 294 292 293 292 292
297 297 301 301 296 292 288 289 291 289 287 293 291 293 294 295 298 292 298 294 295 289 298 293 290 294 298 296 297 298 298 298 298 300 299 297 299 299 296 295 294 294 293 293
299 294 291 291 289 284 285 283 288 290 295 298 297 295 297 296 299 298 297 292 291 299 292 290 293 297 297 298 298 298 299 299 300 301 298 298 298 301 299 297 297 296 294 295
289 287 283 284 283 286 288 289 292 296 298 299 300 298 296 299 297 297 293 296 297 290 289 289 294 295 297 298 299 298 296 298 299 300 298 297 297 297 300 300 300 298 297 297
287 288 281 284 289 292 293 295 296 298 300 298 299 298 299 297 295 297 296 293 290 292 290 293 296 296 296 297 298 299 299 299 300 298 297 297 296 296 297 299 300 299 298 298
288 286 286 289 288 288 291 292 293 298 300 302 300 295 294 293 295 293 292 291 290 293 296 298 298 296 297 298 299 301 301 302 299 299 299 298 298 296 295 297 298 298 298 298
287 284 289 288 288 287 289 292 295 300 299 294 294 290 292 298 293 292 297 294 296 298 298 299 298 298 298 300 301 301 302 303 300 300 300 298 298 297 296 294 296 296 297 298
Wind_Speed
22 19 21 22 22 30 9 6 5 5 6 6 3 4 10 8 12 3 5 7 8 9 9 6 8 6 11 8 10 10 5 5 9 18 23 20 13 6 7 4 3 5 5 11
21 19 18 19 19 16 7 8 5 4 7 5 5 6 11 11 12 7 6 5 11 5 3 6 6 12 9 10 7 3 2 4 8 8 4 1 3 10 5 9 9 14 11 9
20 18 16 16 19 14 5 4 5 5 5 8 7 8 11 8 6 8 12 13 12 4 5 5 10 19 10 8 12 15 15 4 8 12 18 15 23 22 19 15 9 13 17 24
17 17 15 15 18 19 3 2 4 3 5 9 14 12 12 13 10 5 6 12 8 9 5 14 15 15 19 12 21 4 5 7 11 18 22 23 27 27 23 18 13 11 15 20
19 18 16 12 15 24 2 3 4 5 11 8 13 11 10 12 11 9 7 10 16 7 7 9 20 19 17 13 10 6 5 4 6 15 21 24 23 17 7 6 6 9 14 19
18 18 17 11 11 11 4 4 4 3 5 7 9 8 14 16 14 5 14 13 7 8 10 16 22 20 21 16 11 10 4 3 4 12 12 21 2 7 8 10 11 10 13 17
20 17 17 9 5 5 2 3 3 3 6 7 10 19 15 16 15 11 13 7 5 8 16 20 19 17 18 17 15 7 4 2 3 9 9 5 6 8 11 12 18 16 21 18
17 18 17 12 5 1 1 3 3 3 6 7 17 13 14 13 12 13 14 6 3 11 10 7 8 6 6 7 4 4 4 3 5 4 3 14 2 5 9 14 24 3 10 19
18 18 17 16 7 3 2 4 3 4 4 5 14 15 10 8 8 8 10 8 8 8 4 4 4 4 5 6 7 5 4 5 4 6 5 5 1 8 18 16 8 8 23 23
21 20 18 16 10 7 2 4 1 4 5 8 7 9 9 5 6 6 8 6 7 8 4 3 3 4 7 4 6 6 7 4 5 7 6 3 7 23 14 6 8 24 23 24
20 22 20 15 8 9 4 5 4 3 4 12 8 7 7 9 5 3 5 6 4 4 6 3 4 3 5 5 7 3 3 4 3 4 5 5 20 9 8 10 18 20 22 23
20 22 21 19 15 13 8 4 1 5 6 9 17 24 25 21 24 5 3 4 3 2 0 1 3 4 4 5 5 1 3 1 3 3 5 13 12 13 11 15 17 13 16 23
20 22 22 20 19 15 12 2 3 3 4 12 9 10 14 10 14 11 4 2 5 4 3 1 2 5 3 3 4 4 1 2 3 4 4 11 15 9 8 14 12 14 15 15
21 21 22 20 12 16 12 2 1 1 4 5 8 10 8 8 3 13 11 6 5 6 3 3 3 4 4 3 6 6 0 3 4 6 7 15 3 11 12 14 14 13 14 12
22 23 24 24 11 12 4 4 4 4 2 4 10 18 18 13 13 14 11 12 7 3 3 3 4 4 4 4 5 1 1 3 3 4 10 7 8 11 12 11 13 14 15 16
24 24 24 5 12 9 1 3 2 4 5 3 6 7 12 12 7 12 14 11 4 3 3 3 4 5 3 3 3 2 3 2 3 4 8 5 8 8 9 9 11 13 14 14
23 24 6 12 12 3 3 3 2 8 2 2 6 7 6 7 5 7 5 8 4 4 3 4 4 4 6 3 3 4 3 4 3 8 8 2 4 5 10 10 11 11 13 15
22 10 9 8 5 5 6 6 10 4 3 3 4 7 6 7 4 5 5 5 3 4 3 4 4 3 4 4 4 7 4 6 5 10 6 1 1 6 9 9 10 13 14 13
6 10 6 1 2 3 3 8 9 6 3 3 4 4 5 3 4 4 3 4 4 5 5 5 4 3 5 5 8 7 3 3 5 8 10 8 4 9 8 9 11 12 13 13
9 1 1 3 4 8 1 1 3 3 4 4 7 4 9 7 5 4 3 4 4 4 6 3 4 4 7 9 8 5 4 4 4 8 5 10 9 9 10 10 9 10 10 12
2 2 3 1 2 2 3 4 4 4 5 6 6 9 10 4 6 3 3 3 3 3 4 3 3 2 4 7 9 4 4 3 6 7 11 1 13 11 12 10 11 12 12 12
6 6 6 3 2 3 5 4 5 7 7 8 5 8 8 5 2 4 5 3 3 4 3 3 3 3 9 7 8 5 4 4 7 8 10 8 14 14 14 13 11 11 12 13
3 3 3 3 4 7 6 8 6 6 6 5 6 3 4 3 4 4 2 4 5 3 3 4 2 8 8 7 6 5 3 5 10 8 9 8 10 15 15 14 13 14 14 13
4 5 7 7 7 7 8 9 10 8 8 5 4 3 4 4 4 3 4 5 4 4 4 4 6 8 8 7 5 4 4 7 10 3 9 10 7 8 15 13 13 12 12 13
5 5 7 10 9 10 12 11 11 9 12 10 1 3 6 2 4 5 4 3 5 5 2 2 8 10 8 7 4 3 4 7 8 8 8 10 9 7 7 8 14 13 11 8
6 8 7 8 9 10 10 12 12 8 6 3 4 2 4 7 5 6 6 4 0 2 4 7 9 10 8 7 4 4 4 8 8 7 8 8 8 8 6 6 7 9 10 11
9 8 10 13 12 14 14 11 11 10 8 3 2 6 9 4 5 6 2 4 5 8 8 7 9 10 10 5 4 3 7 6 7 7 9 8 7 7 6 7 6 8 7 7
Wind_Direction
335 336 340 336 351 343 5 326 340 307 22 31 31 357 348 318 326 39 360 329 326 322 351 312 307 277 330 348 307 311 321 282 280 281 276 268 269 357 355 272 242 239 261 257
337 335 335 334 348 15 320 324 274 343 33 30 9 335 333 322 327 26 15 295 301 45 26 320 285 294 301 333 23 310 272 239 294 306 301 94 342 307 246 263 259 254 266 254
337 334 329 329 334 351 330 304 325 350 342 10 350 318 294 308 347 1 345 320 299 260 249 248 279 286 291 242 278 248 268 214 227 265 270 290 286 280 281 279 269 278 260 286
333 334 326 326 333 336 299 251 348 5 305 327 309 298 286 323 338 340 320 304 326 309 304 302 274 292 301 299 287 301 162 256 248 255 263 269 274 278 280 279 275 262 305 286
335 333 328 322 339 333 207 358 353 332 296 291 301 305 349 327 319 338 324 322 303 333 291 269 307 311 298 284 292 246 169 275 284 271 267 265 276 285 310 269 289 287 312 299
335 332 332 319 351 345 315 353 331 263 267 296 316 335 322 323 335 307 306 296 331 320 319 307 287 278 273 250 244 244 167 266 265 285 314 301 333 22 353 305 286 302 293 292
336 332 328 303 337 32 302 296 305 281 278 302 308 312 325 324 317 297 316 40 30 317 306 296 287 264 253 250 247 213 172 228 277 285 315 298 153 42 338 293 284 287 283 289
335 330 326 314 266 305 278 323 305 296 287 302 296 338 314 318 320 334 308 38 340 328 319 312 323 328 359 58 109 145 122 102 280 290 293 267 118 13 330 322 301 236 359 332
338 336 332 327 247 229 249 261 264 270 297 256 322 310 308 320 325 306 328 347 349 15 315 325 314 314 332 322 333 131 179 208 196 295 283 290 86 325 338 313 267 1 341 318
339 338 336 330 238 212 227 284 332 285 268 263 302 312 309 301 293 280 306 333 1 36 354 305 318 310 341 318 326 328 304 313 250 282 273 255 359 354 316 328 308 323 309 297
336 337 336 325 266 204 180 275 280 242 266 289 259 332 308 307 284 242 332 15 24 35 15 334 339 307 302 320 302 299 302 320 337 302 280 311 6 334 340 298 300 301 303 296
330 334 331 332 325 190 186 268 300 327 234 263 305 279 268 250 247 263 245 192 138 132 140 327 305 286 304 321 294 115 294 230 296 215 270 306 320 304 304 302 297 305 299 305
330 329 326 324 323 181 184 260 340 314 280 280 249 268 263 220 212 193 179 141 113 167 165 175 267 268 279 281 270 285 124 138 253 299 231 305 314 324 301 320 325 313 317 341
327 326 325 318 292 180 186 202 220 333 277 276 288 343 315 328 245 184 191 120 132 118 148 194 228 256 232 260 264 272 328 308 274 257 285 304 327 349 334 334 339 338 337 349
328 327 324 322 172 167 202 251 240 212 247 295 299 302 273 260 230 201 163 145 137 145 168 193 225 235 251 231 238 204 225 265 316 299 305 306 306 341 343 347 350 350 356 359
327 325 325 173 136 130 103 283 156 196 195 273 295 314 276 278 212 183 173 166 124 138 177 204 236 232 246 265 269 206 220 252 167 277 287 327 331 343 344 359 359 4 10 14
322 324 299 141 148 160 207 299 300 317 306 254 289 278 263 225 212 187 178 153 141 140 191 224 231 217 192 251 242 221 142 130 257 268 285 217 356 6 7 26 18 20 30 33
320 312 120 124 156 288 286 242 225 232 274 260 268 275 282 184 197 205 159 139 135 177 223 243 222 129 219 252 207 136 146 156 238 271 277 202 76 69 37 38 22 35 36 37
309 107 111 103 244 243 259 318 179 178 258 276 242 247 281 163 237 194 100 119 189 170 215 230 199 197 221 221 138 146 156 193 266 291 280 142 113 87 62 42 45 45 43 45
131 300 256 257 218 276 208 326 128 171 210 233 249 264 255 336 359 296 139 171 224 203 222 138 199 226 94 99 99 113 156 236 279 290 24 145 118 93 81 76 74 58 50 58
263 242 247 323 313 241 241 225 195 163 236 220 242 229 246 273 243 260 215 203 194 251 244 186 237 206 118 122 115 142 208 233 261 269 287 209 137 127 102 83 89 77 62 60
331 301 280 266 237 231 249 216 189 204 242 181 216 209 194 245 169 203 263 216 200 249 148 234 251 116 128 132 135 181 228 251 271 261 269 86 135 126 125 113 108 96 88 81
282 244 258 231 197 237 227 206 205 214 202 202 203 210 165 218 241 220 212 227 222 144 218 231 113 136 128 133 145 185 242 264 273 271 98 83 95 133 132 130 120 118 111 98
236 222 221 217 217 223 208 234 234 237 279 286 223 197 192 212 221 205 226 228 148 219 213 225 145 132 137 147 171 177 210 247 267 182 126 114 96 99 142 138 141 139 137 140
241 231 233 222 234 272 279 266 253 269 285 267 318 359 233 215 260 219 239 232 231 211 183 103 127 133 147 157 176 212 240 260 251 109 104 108 104 86 67 98 152 153 140 151
223 240 243 253 257 256 253 265 284 280 269 28 74 230 261 216 206 234 222 235 142 86 89 120 125 139 142 161 182 238 275 296 110 104 108 110 104 109 107 91 98 118 130 138
215 228 234 256 269 269 275 286 291 316 299 159 123 248 210 219 232 217 310 20 113 115 121 132 138 143 146 156 153 255 303 327 110 112 106 107 111 117 113 110 97 95 110 116